CW9346 McLean VA US current weather conditions

sailwx.info

Wind from 315

Air temperature 3.3° C
Dewpoint -3.3° C

Last reported at 2019-Dec-07 08:03 UTC.
Time now 2019-Dec-07 08:38 UTC

Location: N 38°54' W 077°12'.
View on Google Maps.

See reports from other nearby stations

  
Tides and Currents Weather Stations Pressure Air Temp Water Temp Dewpoint Dewpoint Depression Visibility Wind Speed Wind Dir Waves Ship Positions
date/time (UTC)wind fromknots sea level pressurealtimeterstation pressurevisibilityair tempwater tempwave heightnotes
2019-Dec-07 08:03 315 3.3
2019-Dec-07 07:53 315 3.9
2019-Dec-07 07:48 315 3.9
2019-Dec-07 07:43 315 3.9
2019-Dec-07 07:38 315 3.9
2019-Dec-07 07:33 315 4.4
2019-Dec-07 07:28 315 4.4
2019-Dec-07 07:23 313 4.4
2019-Dec-07 07:18 311 4.4
2019-Dec-07 07:13 311 4.4
2019-Dec-07 07:08 337 0 gusting 3 5.0
2019-Dec-07 07:03 360 0 gusting 3 5.0
2019-Dec-07 06:58 325 1 gusting 3 5.0
2019-Dec-07 06:53 329 5.0
2019-Dec-07 06:48 329 5.6
2019-Dec-07 06:43 183 0 gusting 4 5.6
2019-Dec-07 06:38 360 5.6
2019-Dec-07 06:33 355 2 gusting 8 5.6
2019-Dec-07 06:28 293 6.1
2019-Dec-07 06:23 328 0 gusting 6 6.1
2019-Dec-07 06:18 348 1 gusting 6 6.1
2019-Dec-07 06:13 309 1 gusting 6 6.1
2019-Dec-07 06:08 017 6.7
2019-Dec-07 06:03 296 0 gusting 7 6.7
2019-Dec-07 05:58 335 6.7
2019-Dec-07 05:53 316 0 gusting 3 6.7
2019-Dec-07 05:48 335 6.7
2019-Dec-07 05:43 342 0 gusting 3 6.7
2019-Dec-07 05:38 347 0 gusting 3 6.7
2019-Dec-07 05:33 343 0 gusting 3 6.7
2019-Dec-07 05:28 331 7.2
2019-Dec-07 05:23 346 1 gusting 6 7.2
2019-Dec-07 05:18 336 0 gusting 4 7.2
2019-Dec-07 05:13 348 7.2
2019-Dec-07 05:08 317 0 gusting 9 7.2
2019-Dec-07 05:03 325 0 gusting 9 7.2
2019-Dec-07 04:58 348 0 gusting 5 7.2
2019-Dec-07 04:53 005 0 gusting 12 7.2
2019-Dec-07 04:48 342 3 gusting 12 7.8
2019-Dec-07 04:43 315 0 gusting 5 7.8
2019-Dec-07 04:38 355 0 gusting 4 7.8
2019-Dec-07 04:33 010 0 gusting 5 7.8
2019-Dec-07 04:28 315 0 gusting 5 7.8
2019-Dec-07 04:23 350 7.8
2019-Dec-07 04:18 036 0 gusting 3 7.8
2019-Dec-07 04:13 304 8.3
2019-Dec-07 04:08 042 0 gusting 4 8.3
2019-Dec-07 04:03 360 8.3
2019-Dec-07 03:58 146 3 gusting 10 8.3
2019-Dec-07 03:53 010 2 gusting 12 8.9
2019-Dec-07 03:48 005 0 gusting 7 8.9
2019-Dec-07 03:43 308 0 gusting 7 8.9
2019-Dec-07 03:38 360 0 gusting 7 8.9
2019-Dec-07 03:33 346 0 gusting 4 8.9
2019-Dec-07 03:28 334 0 gusting 4 8.9
2019-Dec-07 03:23 325 1 gusting 4 8.9
2019-Dec-07 03:18 360 8.9
2019-Dec-07 03:13 304 8.9
2019-Dec-07 03:08 300 8.9
2019-Dec-07 03:03 300 8.3
2019-Dec-07 02:58 300 8.3
2019-Dec-07 02:53 300 8.3
2019-Dec-07 02:48 302 8.3
2019-Dec-07 02:43 302 8.9
2019-Dec-07 02:38 302 8.9
2019-Dec-07 02:33 302 8.9
2019-Dec-07 02:28 302 8.9
2019-Dec-07 02:23 302 8.9
2019-Dec-07 02:18 302 9.4
2019-Dec-07 02:13 302 9.4
2019-Dec-07 02:08 302 9.4
2019-Dec-07 02:03 299 9.4
2019-Dec-07 01:58 299 9.4
2019-Dec-07 01:53 299 9.4
2019-Dec-07 01:48 299 9.4
2019-Dec-07 01:43 302 9.4
2019-Dec-07 01:38 320 9.4
2019-Dec-07 01:33 321 9.4
2019-Dec-07 01:28 321 9.4
2019-Dec-07 01:23 317 9.4
2019-Dec-07 01:18 317 9.4
2019-Dec-07 01:13 317 9.4
2019-Dec-07 01:08 300 9.4
2019-Dec-07 01:03 300 9.4
2019-Dec-07 00:58 300 9.4
2019-Dec-07 00:53 300 9.4
2019-Dec-07 00:48 300 9.4
2019-Dec-07 00:43 299 9.4
2019-Dec-07 00:38 299 9.4
2019-Dec-07 00:33 299 9.4
2019-Dec-07 00:28 299 9.4
2019-Dec-07 00:23 299 9.4
2019-Dec-07 00:18 299 9.4
2019-Dec-07 00:13 299 9.4
2019-Dec-07 00:08 299 9.4
2019-Dec-07 00:03 299 9.4
2019-Dec-06 23:58 299 9.4
2019-Dec-06 23:53 299 9.4
2019-Dec-06 23:48 288 9.4
2019-Dec-06 23:43 286 9.4
2019-Dec-06 23:38 286 9.4
2019-Dec-06 23:33 286 9.4
2019-Dec-06 23:28 286 9.4
2019-Dec-06 23:23 286 9.4
2019-Dec-06 23:18 286 10.0
2019-Dec-06 23:13 286 10.0
2019-Dec-06 23:08 286 10.0
2019-Dec-06 23:03 286 0 gusting 2 10.0
2019-Dec-06 22:58 274 10.0
2019-Dec-06 22:53 274 10.0
2019-Dec-06 22:48 274 10.0
2019-Dec-06 22:43 274 10.6
2019-Dec-06 22:38 274 10.6
2019-Dec-06 22:33 228 10.6
2019-Dec-06 22:28 228 10.6
2019-Dec-06 22:23 228 10.6
2019-Dec-06 22:18 219 10.6
2019-Dec-06 22:13 215 10.6
2019-Dec-06 22:08 279 10.6
2019-Dec-06 22:03 279 10.6
2019-Dec-06 21:58 280 11.1
2019-Dec-06 21:53 280 11.1
2019-Dec-06 21:48 279 11.1
2019-Dec-06 21:43 284 11.1
2019-Dec-06 21:38 282 11.1
2019-Dec-06 21:33 305 11.1
2019-Dec-06 21:28 305 11.1
2019-Dec-06 21:23 305 11.1
2019-Dec-06 21:18 232 11.1
2019-Dec-06 21:13 229 0 gusting 6 11.1
2019-Dec-06 21:08 100 11.1
2019-Dec-06 21:03 098 11.1
2019-Dec-06 20:58 057 11.1
2019-Dec-06 20:53 300 11.1
2019-Dec-06 20:48 284 11.1
2019-Dec-06 20:43 298 11.1
2019-Dec-06 20:38 298 11.1
2019-Dec-06 20:33 298 11.1
2019-Dec-06 20:28 298 11.1
2019-Dec-06 20:23 304 11.1
2019-Dec-06 20:18 292 11.1
2019-Dec-06 20:13 292 11.1
2019-Dec-06 20:08 302 11.1
2019-Dec-06 20:03 305 11.1
2019-Dec-06 19:58 311 11.1
2019-Dec-06 19:53 311 11.1
2019-Dec-06 19:48 311 11.1
2019-Dec-06 19:43 082 11.1
2019-Dec-06 19:38 073 11.1
2019-Dec-06 19:33 059 11.1
2019-Dec-06 19:28 059 11.1
2019-Dec-06 19:23 059 11.1
2019-Dec-06 19:18 053 11.1
2019-Dec-06 19:13 053 11.1
2019-Dec-06 19:08 053 11.1
2019-Dec-06 19:03 360 10.6
2019-Dec-06 18:58 360 10.6
2019-Dec-06 18:53 360 10.6
2019-Dec-06 18:48 360 10.6
2019-Dec-06 18:43 049 10.6
2019-Dec-06 18:38 049 10.6
2019-Dec-06 18:33 049 10.6
2019-Dec-06 18:28 049 10.6
2019-Dec-06 18:23 014 10.6
2019-Dec-06 18:18 014 10.0
2019-Dec-06 18:13 014 10.0
2019-Dec-06 18:08 014 10.0
2019-Dec-06 18:03 014 10.0
2019-Dec-06 17:58 360 10.0
2019-Dec-06 17:53 360 10.0
2019-Dec-06 17:48 005 10.0
2019-Dec-06 17:43 005 10.0
2019-Dec-06 17:38 005 10.0
2019-Dec-06 17:33 360 10.0
2019-Dec-06 17:28 360 9.4
2019-Dec-06 17:23 360 9.4
2019-Dec-06 17:18 360 9.4
2019-Dec-06 17:13 360 9.4
2019-Dec-06 17:08 355 9.4
2019-Dec-06 17:03 305 9.4
2019-Dec-06 16:58 186 9.4
2019-Dec-06 16:53 186 9.4
2019-Dec-06 16:48 186 9.4
2019-Dec-06 16:43 233 9.4
2019-Dec-06 16:38 182 9.4
2019-Dec-06 16:33 161 10.0
2019-Dec-06 16:28 161 10.0
2019-Dec-06 16:23 161 10.0
2019-Dec-06 16:18 163 10.6
2019-Dec-06 16:13 148 10.6
2019-Dec-06 16:08 254 10.6
2019-Dec-06 16:03 146 10.6
2019-Dec-06 15:58 281 10.6
2019-Dec-06 15:53 123 10.0
2019-Dec-06 15:48 279 9.4
2019-Dec-06 15:43 269 9.4
2019-Dec-06 15:38 119 9.4
2019-Dec-06 15:33 107 10.0
2019-Dec-06 15:28 127 0 gusting 2 10.0
2019-Dec-06 15:23 276 9.4
2019-Dec-06 15:18 154 9.4
2019-Dec-06 15:13 351 9.4
2019-Dec-06 15:08 240 8.9
2019-Dec-06 15:03 103 8.9
2019-Dec-06 14:58 157 0 gusting 2 8.9
2019-Dec-06 14:53 151 8.3
2019-Dec-06 14:48 151 8.3
2019-Dec-06 14:43 152 8.3
2019-Dec-06 14:38 153 7.8
2019-Dec-06 14:33 153 7.2
2019-Dec-06 14:28 150 7.2
2019-Dec-06 14:23 147 0 gusting 3 6.7
2019-Dec-06 14:18 159 6.7
2019-Dec-06 14:13 151 6.1
2019-Dec-06 14:08 151 6.1
2019-Dec-06 14:03 151 5.6
2019-Dec-06 13:58 151 5.6
2019-Dec-06 13:53 152 5.0
2019-Dec-06 13:48 151 5.0
2019-Dec-06 13:43 151 4.4
2019-Dec-06 13:38 151 4.4
2019-Dec-06 13:33 151 4.4
2019-Dec-06 13:28 150 4.4
2019-Dec-06 13:23 138 4.4
2019-Dec-06 13:18 138 3.9
2019-Dec-06 13:13 138 2.8
2019-Dec-06 13:08 138 1.7
2019-Dec-06 13:03 138 1.7
2019-Dec-06 12:58 138 1.1
2019-Dec-06 12:53 138 1.1
2019-Dec-06 12:48 138 1.1
2019-Dec-06 12:43 138 1.1
2019-Dec-06 12:38 138 1.1
2019-Dec-06 12:33 138 1.1
2019-Dec-06 12:28 138 1.1
2019-Dec-06 12:23 138 1.1
2019-Dec-06 12:18 138 1.1
2019-Dec-06 12:13 138 1.1
2019-Dec-06 12:08 138 1.1
2019-Dec-06 12:03 138 1.1
2019-Dec-06 11:58 138 1.1
2019-Dec-06 11:53 138 1.1
2019-Dec-06 11:48 138 1.1
2019-Dec-06 11:43 138 1.1
2019-Dec-06 11:38 138 1.1
2019-Dec-06 11:33 138 1.1
2019-Dec-06 11:28 138 1.1
2019-Dec-06 11:23 139 1.1
2019-Dec-06 11:18 139 1.1
2019-Dec-06 11:13 139 1.1
2019-Dec-06 11:08 139 1.1
2019-Dec-06 11:03 139 1.1
2019-Dec-06 10:58 139 1.1
2019-Dec-06 10:53 128 1.1
2019-Dec-06 10:48 128 1.1
2019-Dec-06 10:43 128 1.1
2019-Dec-06 10:38 128 1.1
2019-Dec-06 10:33 128 1.1
2019-Dec-06 10:28 128 1.1
2019-Dec-06 10:23 128 1.1
2019-Dec-06 10:18 128 1.1
2019-Dec-06 10:13 128 1.1
2019-Dec-06 10:08 128 1.1
2019-Dec-06 10:03 128 1.1
2019-Dec-06 09:58 128 1.1
2019-Dec-06 09:53 128 1.1
2019-Dec-06 09:48 128 1.1
2019-Dec-06 09:43 128 1.1
2019-Dec-06 09:38 128 1.1
2019-Dec-06 09:33 128 1.1
2019-Dec-06 09:28 128 1.1
2019-Dec-06 09:23 128 1.1
2019-Dec-06 09:18 128 1.1
2019-Dec-06 09:13 128 1.1
2019-Dec-06 09:08 128 1.1
2019-Dec-06 09:03 128 1.1
2019-Dec-06 08:58 128 1.1
2019-Dec-06 08:53 128 1.1
2019-Dec-06 08:48 128 1.7
2019-Dec-06 08:43 128 1.7
2019-Dec-06 08:38 128 1.7
2019-Dec-06 08:33 128 1.7
2019-Dec-06 08:28 128 1.7
2019-Dec-06 08:23 128 1.7
2019-Dec-06 08:18 128 1.7
2019-Dec-06 08:13 128 1.7
2019-Dec-06 08:08 128 1.7
2019-Dec-06 08:03 128 1.7
2019-Dec-06 07:58 128 1.7
2019-Dec-06 07:53 128 1.7
2019-Dec-06 07:48 128 1.7
2019-Dec-06 07:43 128 1.7
2019-Dec-06 07:38 128 1.7
2019-Dec-06 07:33 128 1.7
2019-Dec-06 07:28 128 1.7
2019-Dec-06 07:23 128 1.7
2019-Dec-06 07:18 128 1.7
2019-Dec-06 07:13 128 1.7
2019-Dec-06 07:08 128 1.7
2019-Dec-06 07:03 128 1.1
2019-Dec-06 06:58 128 1.1
2019-Dec-06 06:53 128 1.1
2019-Dec-06 06:48 128 1.1
2019-Dec-06 06:43 128 1.1
2019-Dec-06 06:38 128 1.1
2019-Dec-06 06:33 128 1.1
2019-Dec-06 06:28 128 1.1
2019-Dec-06 06:23 128 1.1
2019-Dec-06 06:18 128 1.1
2019-Dec-06 06:13 128 1.1
2019-Dec-06 06:08 128 1.1
2019-Dec-06 06:03 128 1.1
2019-Dec-06 05:58 128 1.1
2019-Dec-06 05:53 128 1.1
2019-Dec-06 05:48 128 1.1
2019-Dec-06 05:43 128 1.1
2019-Dec-06 05:38 128 1.1
2019-Dec-06 05:33 128 1.1
2019-Dec-06 05:28 128 1.1
2019-Dec-06 05:23 128 1.1
2019-Dec-06 05:18 128 1.1
2019-Dec-06 05:13 128 1.1
2019-Dec-06 05:08 128 1.1
2019-Dec-06 05:03 128 1.1
2019-Dec-06 04:58 128 1.1
2019-Dec-06 04:53 128 1.1
2019-Dec-06 04:48 128 1.1
2019-Dec-06 04:43 128 1.1
2019-Dec-06 04:38 128 1.1
2019-Dec-06 04:33 128 1.1
2019-Dec-06 04:28 128 1.1
2019-Dec-06 04:23 128 1.1
2019-Dec-06 04:18 128 1.1
2019-Dec-06 04:13 128 1.1
2019-Dec-06 04:08 128 1.1
2019-Dec-06 04:03 128 1.1
2019-Dec-06 03:58 128 1.1
2019-Dec-06 03:53 128 1.7
2019-Dec-06 03:48 128 1.7
2019-Dec-06 03:43 128 1.7
2019-Dec-06 03:38 128 1.7
2019-Dec-06 03:33 128 1.7
2019-Dec-06 03:28 128 1.7
2019-Dec-06 03:23 128 1.7
2019-Dec-06 03:18 128 1.7
2019-Dec-06 03:13 128 1.7
2019-Dec-06 03:08 128 1.7
2019-Dec-06 03:03 128 1.7
2019-Dec-06 02:58 128 1.7
2019-Dec-06 02:53 128 1.7
2019-Dec-06 02:48 128 1.7
2019-Dec-06 02:43 128 1.7
2019-Dec-06 02:38 128 1.7
2019-Dec-06 02:33 128 1.7
2019-Dec-06 02:28 128 1.7
2019-Dec-06 02:23 128 1.7
2019-Dec-06 02:18 128 1.7
2019-Dec-06 02:13 128 1.7
2019-Dec-06 02:08 128 2.2
2019-Dec-06 02:03 128 2.2
2019-Dec-06 01:58 128 2.2
2019-Dec-06 01:53 128 2.2
2019-Dec-06 01:48 128 2.2
2019-Dec-06 01:43 128 2.2
2019-Dec-06 01:38 128 2.2
2019-Dec-06 01:33 128 2.2
2019-Dec-06 01:28 128 2.2
2019-Dec-06 01:23 128 2.2
2019-Dec-06 01:18 128 2.8
2019-Dec-06 01:13 128 2.8
2019-Dec-06 01:08 128 2.8
2019-Dec-06 01:03 128 2.8
2019-Dec-06 00:58 128 2.8
2019-Dec-06 00:53 128 2.8
2019-Dec-06 00:48 128 3.3
2019-Dec-06 00:43 128 3.3
2019-Dec-06 00:38 128 3.3
2019-Dec-06 00:33 128 3.3
2019-Dec-06 00:28 128 3.3
2019-Dec-06 00:23 128 3.3
2019-Dec-06 00:18 128 3.3
2019-Dec-06 00:13 128 3.3
2019-Dec-06 00:08 128 3.9
2019-Dec-06 00:03 128 3.9
2019-Dec-05 23:58 128 3.9
2019-Dec-05 23:53 127 3.9
2019-Dec-05 23:48 127 3.9
2019-Dec-05 23:43 127 3.9
2019-Dec-05 23:38 127 4.4
2019-Dec-05 23:33 127 4.4
2019-Dec-05 23:28 127 4.4
2019-Dec-05 23:23 127 4.4
2019-Dec-05 23:18 127 4.4
2019-Dec-05 23:13 127 4.4
2019-Dec-05 23:08 127 4.4
2019-Dec-05 23:03 113 5.0
2019-Dec-05 22:58 116 5.0
2019-Dec-05 22:53 123 5.0
2019-Dec-05 22:48 123 5.0
2019-Dec-05 22:43 123 5.6
2019-Dec-05 22:38 123 5.6
2019-Dec-05 22:33 123 5.6
2019-Dec-05 22:28 123 5.6
2019-Dec-05 22:23 123 6.1
2019-Dec-05 22:18 121 6.1
2019-Dec-05 22:13 121 6.1
2019-Dec-05 22:08 105 6.1
2019-Dec-05 22:03 120 6.1
2019-Dec-05 21:58 161 0 gusting 4 6.1
2019-Dec-05 21:53 302 6.1
2019-Dec-05 21:48 239 6.7
2019-Dec-05 21:43 300 6.7
2019-Dec-05 21:38 106 0 gusting 6 6.7
2019-Dec-05 21:33 262 1 gusting 6 6.7
2019-Dec-05 21:28 160 0 gusting 6 6.7
2019-Dec-05 21:23 348 6.7
2019-Dec-05 21:18 328 6.7
2019-Dec-05 21:13 302 0 gusting 3 7.2
2019-Dec-05 21:08 032 0 gusting 4 7.2
2019-Dec-05 21:03 338 7.2
2019-Dec-05 20:58 300 7.2
2019-Dec-05 20:53 054 1 gusting 8 7.2
2019-Dec-05 20:48 304 1 gusting 8 7.2
2019-Dec-05 20:43 005 0 gusting 4 7.2
2019-Dec-05 20:38 301 7.2
2019-Dec-05 20:33 345 7.2
2019-Dec-05 20:28 267 7.2
2019-Dec-05 20:23 271 7.2
2019-Dec-05 20:18 360 0 gusting 4 7.2
2019-Dec-05 20:13 296 1 gusting 3 7.2
2019-Dec-05 20:08 039 0 gusting 3 7.2
2019-Dec-05 20:03 141 7.2
2019-Dec-05 19:58 355 0 gusting 7 7.2
2019-Dec-05 19:53 323 0 gusting 4 7.2
2019-Dec-05 19:48 016 7.2
2019-Dec-05 19:43 298 0 gusting 9 7.2
2019-Dec-05 19:38 282 0 gusting 9 7.2
2019-Dec-05 19:33 029 0 gusting 7 7.2
2019-Dec-05 19:28 291 0 gusting 7 7.2
2019-Dec-05 19:23 273 7.2
2019-Dec-05 19:18 287 1 gusting 6 7.2
2019-Dec-05 19:13 283 0 gusting 6 7.2
2019-Dec-05 19:08 012 7.2
2019-Dec-05 19:03 288 0 gusting 6 7.2
2019-Dec-05 18:58 030 0 gusting 3 7.2
2019-Dec-05 18:53 303 0 gusting 4 7.2
2019-Dec-05 18:48 031 0 gusting 6 7.2
2019-Dec-05 18:43 034 1 gusting 11 7.2
2019-Dec-05 18:38 336 1 gusting 8 7.2
2019-Dec-05 18:33 319 0 gusting 8 7.2
2019-Dec-05 18:28 321 1 gusting 6 7.2
2019-Dec-05 18:23 326 0 gusting 6 7.2
2019-Dec-05 18:18 330 1 gusting 9 7.2
2019-Dec-05 18:13 295 1 gusting 9 7.2
2019-Dec-05 18:08 304 1 gusting 9 7.2
2019-Dec-05 18:03 348 0 gusting 4 7.2
2019-Dec-05 17:58 333 7.2
2019-Dec-05 17:53 332 7.2
2019-Dec-05 17:48 296 1 gusting 10 7.2
2019-Dec-05 17:43 340 3 gusting 10 7.2
2019-Dec-05 17:38 345 0 gusting 5 7.2
2019-Dec-05 17:33 347 1 gusting 8 7.2
2019-Dec-05 17:28 350 2 gusting 8 7.2
2019-Dec-05 17:23 017 0 gusting 10 7.2
2019-Dec-05 17:18 320 2 gusting 10 7.2
2019-Dec-05 17:13 360 1 gusting 13 6.7
2019-Dec-05 17:08 331 1 gusting 13 6.7
2019-Dec-05 17:03 195 1 gusting 7 6.7
2019-Dec-05 16:58 288 1 gusting 11 6.7
2019-Dec-05 16:53 317 0 gusting 15 6.7
2019-Dec-05 16:48 277 2 gusting 15 7.2
2019-Dec-05 16:43 337 0 gusting 7 6.7
2019-Dec-05 16:38 321 2 gusting 6 7.2
2019-Dec-05 16:33 329 0 gusting 13 7.2
2019-Dec-05 16:28 348 2 gusting 13 7.2
2019-Dec-05 16:23 349 2 gusting 11 7.2
2019-Dec-05 16:18 288 1 gusting 11 7.2
2019-Dec-05 16:13 305 1 gusting 7 7.2
2019-Dec-05 16:08 299 1 gusting 8 7.2
2019-Dec-05 16:03 084 0 gusting 4 7.2
2019-Dec-05 15:58 057 0 gusting 6 7.2
2019-Dec-05 15:53 321 0 gusting 7 6.7
2019-Dec-05 15:48 309 1 gusting 8 6.7
2019-Dec-05 15:43 351 2 gusting 8 7.2
2019-Dec-05 15:38 317 1 gusting 6 7.2
2019-Dec-05 15:33 319 0 gusting 7 6.7
2019-Dec-05 15:28 328 1 gusting 7 6.7
2019-Dec-05 15:23 280 2 gusting 6 6.7
2019-Dec-05 15:18 334 0 gusting 5 6.1
2019-Dec-05 15:13 269 1 gusting 5 6.1
2019-Dec-05 15:08 333 6.1
2019-Dec-05 15:03 341 1 gusting 8 5.6
2019-Dec-05 14:58 309 1 gusting 8 5.6
2019-Dec-05 14:53 355 5.6
2019-Dec-05 14:48 291 2 gusting 6 5.6
2019-Dec-05 14:43 298 0 gusting 6 6.1
2019-Dec-05 14:38 304 5.6
2019-Dec-05 14:33 281 0 gusting 9 5.6
2019-Dec-05 14:28 315 0 gusting 5 5.6
2019-Dec-05 14:23 360 0 gusting 5 5.0
2019-Dec-05 14:18 012 0 gusting 2 5.0
2019-Dec-05 14:13 306 5.0
2019-Dec-05 14:08 304 5.0
2019-Dec-05 14:03 033 5.0
2019-Dec-05 13:58 005 0 gusting 6 4.4
2019-Dec-05 13:53 351 1 gusting 5 4.4
2019-Dec-05 13:48 326 1 gusting 10 4.4
2019-Dec-05 13:43 005 0 gusting 10 4.4
2019-Dec-05 13:38 333 0 gusting 5 4.4
2019-Dec-05 13:33 005 0 gusting 4 3.9
2019-Dec-05 13:28 014 3.9
2019-Dec-05 13:23 355 1 gusting 4 3.3
2019-Dec-05 13:18 169 0 gusting 4 3.3
2019-Dec-05 13:13 288 1 gusting 4 3.3
2019-Dec-05 13:08 333 3.3
2019-Dec-05 13:03 296 0 gusting 10 3.3
2019-Dec-05 12:58 323 1 gusting 6 3.3
2019-Dec-05 12:53 355 1 gusting 10 2.8
2019-Dec-05 12:48 325 2.8
2019-Dec-05 12:43 344 2.8
2019-Dec-05 12:38 286 2 gusting 13 2.8
2019-Dec-05 12:33 021 1 gusting 3 2.8
2019-Dec-05 12:28 314 2.8
2019-Dec-05 12:23 288 2.8
2019-Dec-05 12:18 285 0 gusting 3 2.8
2019-Dec-05 12:13 331 2.8
2019-Dec-05 12:08 300 2.8
2019-Dec-05 12:03 296 2.8
2019-Dec-05 11:58 300 2.8
2019-Dec-05 11:53 310 0 gusting 6 2.8
2019-Dec-05 11:48 298 2.8
2019-Dec-05 11:43 306 3.3
2019-Dec-05 11:38 355 3.3
2019-Dec-05 11:33 288 3.3
2019-Dec-05 11:28 290 3.3
2019-Dec-05 11:23 321 3.3
2019-Dec-05 11:18 284 3.3
2019-Dec-05 11:13 265 0 gusting 5 3.3
2019-Dec-05 11:08 310 3.3
2019-Dec-05 11:03 310 0 gusting 7 3.3
2019-Dec-05 10:58 272 3.3
2019-Dec-05 10:53 304 3.3
2019-Dec-05 10:48 350 3.9
2019-Dec-05 10:43 355 3.9
2019-Dec-05 10:38 241 3.9
2019-Dec-05 10:33 294 0 gusting 9 3.3
2019-Dec-05 10:28 294 1 gusting 9 3.3
2019-Dec-05 10:23 336 3.3
2019-Dec-05 10:18 024 1 gusting 6 3.3
2019-Dec-05 10:13 042 3.3
2019-Dec-05 10:08 293 0 gusting 4 3.3
2019-Dec-05 10:03 220 3.3
2019-Dec-05 09:58 311 3.9
2019-Dec-05 09:53 303 3.9
2019-Dec-05 09:48 324 3.9
2019-Dec-05 09:43 325 3.9
2019-Dec-05 09:38 296 3.9
2019-Dec-05 09:33 277 3.9
2019-Dec-05 09:28 326 3.9
2019-Dec-05 09:23 325 0 gusting 3 3.9
2019-Dec-05 09:18 349 3.9
2019-Dec-05 09:13 319 3.9
2019-Dec-05 09:08 315 0 gusting 5 3.3
2019-Dec-05 09:03 336 0 gusting 5 3.3
2019-Dec-05 08:58 116 0 gusting 6 3.3
2019-Dec-05 08:53 266 0 gusting 6 3.3
2019-Dec-05 08:48 252 0 gusting 6 3.3
2019-Dec-05 08:43 300 3.3
2019-Dec-05 08:38 311 3.3
2019-Dec-05 08:33 313 3.3
2019-Dec-05 08:28 284 1 gusting 6 3.3
2019-Dec-05 08:23 326 3.3
2019-Dec-05 08:18 307 3.3
2019-Dec-05 08:13 285 1 gusting 5 3.3
2019-Dec-05 08:08 296 3.3
2019-Dec-05 08:03 296 0 gusting 4 3.3